Location: Quedlinburg
(51.7921°N, 11.1414°E)
Time: 00:27:55
(UTC+01:00)

POLYITAN 1 - Visible Passes

Search period start: 15 March 2026 00:00
Search period end: 25 March 2026 00:00
Orbit: 470 x 483 km, 98.1° (Epoch: 14 March)

Date Brightness Start Highest point End Pass type
(mag) Time Alt. Az. Time Alt. Az. Time Alt. Az.
15 Mar ? 19:22:28 10° SW 19:24:27 14° W 19:26:26 10° WNW visible
16 Mar ? 18:54:14 10° SSW 18:57:16 27° W 19:00:20 10° NW visible
18 Mar ? 19:35:45 10° WSW 19:36:44 11° W 19:37:44 10° WNW visible
19 Mar ? 19:06:38 10° SW 19:09:22 21° W 19:12:06 10° NW visible
22 Mar ? 19:18:39 10° SW 19:20:57 16° W 19:23:16 10° NW visible
